Wind_Speed
49 49 48 48 47 46 46 45 45 45 45 45 44 45 45 46 47 47 47 45 44 42 40 40 40 40 40 40 39 40 41 42 44 45 46 46 45 45 44 44 44 44 43 43 43 43 44 43 42 40 39 39 39 39 39 40 43 46 51 57 61 63 64 65 65 65 63 59 56 52 50 50 51 51 50 48 47 46 44 43 41 39 38 35 33
46 45 45 45 44 44 43 43 43 43 43 42 42 42 42 42 42 42 43 43 43 43 42 41 40 40 40 41 41 41 41 41 42 44 45 46 46 46 46 46 46 46 46 45 45 45 45 46 45 44 43 42 41 41 40 40 41 43 45 50 55 59 63 65 65 65 64 62 59 55 53 53 53 53 52 49 47 46 45 44 43 42 40 38 36
43 42 42 41 41 41 41 40 41 41 41 42 42 41 41 41 40 41 41 41 42 42 43 43 42 42 41 41 41 41 42 42 42 43 44 45 46 46 46 46 47 47 47 47 47 47 47 47 47 47 47 46 45 44 44 43 43 43 43 45 48 52 57 62 65 65 65 64 62 59 56 55 54 54 53 51 49 48 47 45 45 45 43 41 39
40 40 39 38 38 38 38 38 38 39 39 40 41 41 41 41 41 42 42 42 42 43 43 44 44 44 44 43 43 43 43 43 43 44 44 45 46 46 47 47 47 47 47 47 47 48 48 49 49 49 49 50 49 48 47 47 46 45 44 44 46 48 52 57 61 63 64 64 63 62 59 56 55 55 54 53 52 51 49 47 46 47 46 44 42
36 36 35 35 36 36 36 36 37 37 37 38 40 41 42 43 43 44 44 45 45 45 45 45 46 46 46 46 46 46 46 46 46 46 46 47 48 48 48 48 48 48 48 48 48 48 49 49 50 51 51 51 51 51 50 50 50 49 48 46 45 46 49 53 57 60 63 64 64 63 62 59 58 57 57 56 55 53 52 50 49 48 48 47 45
32 33 33 34 35 35 35 35 36 36 37 38 39 40 42 43 44 45 46 46 46 47 47 47 47 48 48 49 49 49 49 48 48 48 48 49 50 51 51 52 51 51 51 51 51 51 50 50 50 51 52 53 53 52 52 51 52 52 52 51 48 47 49 51 53 56 60 62 63 64 64 63 61 59 58 58 57 56 54 54 52 50 50 49 48
31 32 33 34 35 35 35 35 36 37 37 38 39 39 40 41 42 43 44 45 46 47 48 48 48 49 49 50 50 51 51 51 51 51 51 51 51 52 53 54 55 55 55 54 54 54 54 54 52 52 52 53 54 54 54 53 52 53 54 54 53 51 51 51 52 54 57 59 62 64 65 64 63 61 59 59 59 59 58 58 57 54 51 50 49
31 32 33 34 35 36 36 36 36 37 37 37 37 38 38 39 39 41 41 43 44 46 47 49 49 50 51 51 52 53 53 54 53 53 53 53 53 54 54 55 55 56 57 57 57 57 57 57 57 56 55 54 54 55 55 54 54 54 54 54 55 55 54 53 53 54 56 57 60 62 64 65 65 64 62 62 63 63 63 62 59 55 51 50 50
32 33 33 34 35 36 36 36 36 36 36 37 37 38 38 39 39 40 41 43 44 45 47 49 50 51 52 53 54 55 56 57 57 57 57 57 57 57 57 57 57 57 58 59 59 59 59 59 60 61 60 59 57 56 56 56 56 56 55 54 54 55 56 55 55 56 56 58 59 61 63 65 65 65 65 64 63 64 64 62 59 55 53 52 51
33 34 34 34 35 35 36 36 36 37 37 38 38 39 40 41 42 43 44 46 47 49 50 51 53 54 56 56 57 58 59 60 60 60 61 62 62 62 61 60 60 60 60 60 60 61 61 62 62 62 63 63 62 60 59 58 57 57 56 56 56 55 55 56 57 58 58 59 60 61 63 65 65 66 65 63 62 63 64 63 60 58 55 54 54
36 36 35 35 35 36 36 37 38 38 39 40 41 41 42 44 45 47 49 51 52 54 56 57 58 59 61 62 62 62 62 62 62 63 64 65 66 66 67 66 65 64 63 63 62 62 62 63 63 64 64 64 64 64 62 61 60 58 57 57 57 58 57 57 57 57 59 60 61 62 64 65 66 66 65 63 62 63 64 64 62 60 59 58 57
39 38 38 38 38 38 39 40 40 41 42 43 44 46 47 48 50 52 54 56 58 60 62 64 65 66 68 68 68 68 67 66 65 66 66 66 67 68 69 70 70 69 68 67 66 65 65 65 65 65 65 65 65 66 65 64 62 61 59 58 58 59 59 59 58 57 58 59 61 63 64 64 66 68 67 65 63 63 64 65 64 63 62 61 59
39 39 39 40 40 41 41 42 42 43 45 46 48 49 51 53 55 57 59 61 64 66 68 70 72 72 73 74 73 72 71 69 67 66 66 67 67 67 69 70 71 72 72 72 70 69 68 67 67 67 66 66 67 67 67 67 65 64 62 61 60 59 59 60 61 60 58 58 60 62 63 63 66 68 68 66 65 64 65 66 66 65 65 63 61
39 40 41 41 42 42 43 43 44 45 47 49 51 52 54 57 58 61 64 66 68 71 73 75 76 76 75 74 74 73 71 68 66 65 65 64 65 66 67 69 70 71 73 74 74 73 72 71 70 69 68 68 68 68 68 68 68 67 65 64 63 62 61 60 61 62 62 61 60 61 61 62 65 68 68 67 66 65 65 65 66 66 65 63 60
41 42 43 43 43 44 44 45 46 48 50 51 53 55 57 60 62 65 67 70 73 76 78 77 76 74 72 71 71 71 69 67 66 65 64 64 64 65 66 67 68 69 71 72 74 75 75 74 74 73 71 70 69 70 70 70 69 69 69 68 66 65 64 63 61 61 62 63 63 61 59 59 62 65 68 69 68 66 65 64 66 66 65 64 63
44 44 45 45 45 45 46 47 48 50 52 53 55 57 60 62 65 68 71 74 77 78 76 73 71 70 70 70 70 71 70 69 68 68 67 66 66 67 67 68 68 69 69 70 71 73 75 76 77 76 75 73 71 70 71 72 71 70 70 71 70 69 67 65 64 62 61 62 63 63 61 59 59 61 65 69 70 69 67 66 67 68 68 68 69
45 46 46 46 46 47 47 49 50 52 53 55 57 59 62 65 67 71 75 78 77 74 70 69 69 69 70 71 72 73 72 71 70 71 70 69 69 70 70 70 70 71 70 70 70 71 73 75 77 78 78 77 75 72 71 72 73 74 73 72 72 73 71 68 66 64 63 62 62 63 64 63 61 60 61 65 69 71 71 70 69 70 71 72 73
47 47 47 47 47 48 49 50 52 53 55 57 59 61 64 67 70 75 78 76 72 69 68 69 70 72 74 76 77 78 76 74 74 74 73 72 72 73 73 74 73 73 73 73 73 73 73 73 74 77 79 79 78 76 73 72 73 75 75 74 74 74 75 72 68 66 64 63 62 62 63 64 64 63 62 63 65 69 73 74 72 70 72 73 74
47 47 47 47 48 49 50 51 53 55 56 58 61 64 66 69 74 76 74 70 68 68 70 72 74 77 80 82 81 80 79 77 76 75 75 74 74 74 75 75 76 75 75 75 75 75 75 75 74 76 78 80 80 79 76 74 74 74 75 75 75 76 76 74 71 68 65 65 64 64 63 63 64 64 64 63 64 66 70 74 75 74 74 73 73
47 47 47 47 48 50 51 52 54 56 58 60 63 65 68 73 75 73 68 66 67 70 72 75 79 82 83 81 78 75 74 71 69 68 68 67 67 68 69 69 70 70 71 72 74 75 76 76 76 77 77 79 80 81 80 78 77 75 75 75 77 77 75 73 72 69 67 66 65 65 64 63 63 64 64 64 65 66 67 68 72 76 76 75 74
46 46 47 47 49 50 51 53 55 57 59 62 64 67 71 74 72 67 65 66 69 71 74 78 83 82 77 72 66 62 60 58 56 55 55 55 55 57 58 59 61 62 63 63 65 67 70 72 74 76 77 79 80 81 81 81 79 78 78 77 76 75 73 72 70 69 68 67 66 65 66 65 64 64 64 64 65 67 67 66 67 71 75 77 77
45 45 46 47 49 50 52 54 56 58 61 64 66 69 73 71 66 64 65 67 70 72 76 81 82 75 66 58 54 51 49 48 47 47 48 48 49 51 53 54 56 58 60 60 60 61 62 63 65 67 70 74 77 80 82 82 81 81 80 78 75 73 72 71 70 68 68 68 67 66 66 67 66 66 65 65 65 66 67 67 66 66 70 74 77
45 45 46 47 49 51 53 55 57 59 62 64 68 71 70 65 62 63 65 68 71 73 78 81 75 64 55 51 48 47 46 45 45 45 45 46 47 48 50 51 53 56 58 58 59 60 60 59 59 59 61 64 68 73 78 81 82 82 80 77 75 73 71 70 69 67 67 68 68 67 67 67 67 67 66 65 65 65 65 66 66 66 66 70 74
45 45 46 48 49 51 53 55 57 60 63 65 69 70 65 61 61 63 66 69 72 75 80 77 66 56 51 50 48 47 46 44 44 44 44 45 47 48 49 50 51 53 55 56 57 58 59 58 58 58 58 58 60 64 69 74 79 81 80 77 74 71 70 69 69 67 67 68 69 70 69 67 67 68 67 65 63 63 63 64 65 66 66 67 70
45 45 47 48 50 52 54 55 58 61 63 67 68 65 61 59 61 64 67 70 73 77 79 70 58 52 52 51 49 47 46 45 45 45 45 45 46 47 48 49 49 49 51 53 54 55 55 56 56 56 56 56 57 59 62 66 71 75 78 77 73 69 67 67 68 69 68 69 71 72 71 69 66 66 65 63 61 61 62 63 65 66 66 67 68
44 45 47 49 51 53 54 56 58 61 64 66 64 60 58 59 61 65 68 70 73 77 74 62 53 51 51 50 49 48 47 46 46 46 45 45 45 45 47 49 49 48 47 47 48 50 50 51 51 52 53 53 54 56 58 61 64 67 71 73 72 69 65 64 66 68 69 70 71 72 71 69 64 62 62 62 62 61 60 61 63 65 66 66 67
44 46 48 50 51 53 54 56 59 61 64 63 59 56 57 59 61 65 68 69 73 75 67 55 50 50 50 49 48 47 47 47 47 46 45 44 44 46 48 49 50 49 46 43 41 42 44 45 46 47 48 49 51 52 54 56 57 58 62 68 70 68 65 63 64 66 67 68 68 69 68 65 61 59 60 62 63 61 59 58 60 63 64 65 67
44 46 48 50 51 53 55 57 59 62 63 59 55 55 56 58 61 65 66 68 72 71 61 51 49 49 50 49 48 48 47 46 45 44 43 43 45 47 49 49 48 48 47 43 39 37 37 39 41 42 43 45 47 48 48 49 47 44 48 57 62 64 63 61 60 61 63 65 65 65 64 62 59 57 58 59 61 61 59 56 56 59 62 64 66
45 46 48 50 51 53 55 57 60 62 60 55 53 54 56 58 62 64 64 67 70 65 56 50 49 50 51 51 50 49 49 46 43 42 41 42 44 46 47 46 45 44 43 41 39 37 35 36 37 39 40 42 44 44 44 45 43 38 37 42 47 52 56 58 57 56 56 58 62 62 61 60 58 56 55 56 57 59 60 57 54 55 58 61 63
45 46 48 50 51 53 56 58 60 59 56 53 53 54 55 57 60 61 62 65 65 58 50 48 48 48 50 50 49 48 47 45 42 40 39 40 41 42 42 41 40 39 36 35 36 36 35 35 36 38 39 40 42 42 42 44 45 43 42 43 43 45 48 50 51 50 50 52 56 59 58 57 56 54 53 53 53 55 58 58 55 53 54 57 60
45 46 48 49 51 54 56 58 58 56 52 52 53 55 55 57 58 58 60 63 61 53 46 43 43 44 45 46 46 44 43 41 39 37 36 37 37 37 37 36 36 34 32 32 35 36 36 35 36 37 39 42 42 41 40 41 40 39 40 43 46 45 44 44 44 45 46 48 52 55 55 54 54 53 51 49 49 50 53 56 56 54 52 53 57
45 46 48 50 52 54 55 57 55 52 50 51 52 53 56 59 58 56 56 58 55 50 44 41 40 40 40 41 42 42 39 38 37 34 33 34 35 34 32 33 33 32 31 32 35 36 34 33 34 34 37 43 45 43 40 38 35 31 30 34 41 44 44 44 43 42 43 46 49 51 51 51 51 51 49 47 47 47 48 51 53 52 50 51 53
45 47 48 51 53 54 55 54 52 49 49 51 51 52 55 58 57 56 56 54 49 43 40 39 39 39 38 37 38 39 37 36 34 32 30 31 32 31 31 31 30 29 30 31 31 30 30 30 31 31 32 38 43 45 42 37 33 29 27 28 34 39 41 42 41 40 41 45 46 47 48 48 48 49 47 45 44 44 45 47 48 48 48 48 50
46 47 49 51 53 53 53 51 48 47 48 49 50 51 52 54 54 55 57 56 51 43 36 33 34 36 36 35 35 35 35 34 33 31 29 29 30 30 31 31 29 27 26 28 28 28 28 28 30 31 31 31 36 42 43 39 32 27 26 26 29 33 36 37 37 37 40 43 43 44 45 46 47 47 45 43 42 42 43 43 44 44 44 46 48
46 48 50 51 52 52 50 47 46 46 47 47 48 49 50 50 51 53 54 55 53 48 40 33 30 31 33 34 34 33 32 32 32 30 27 27 28 30 31 31 30 27 25 25 27 29 29 28 27 30 31 28 27 32 38 39 35 28 24 23 26 30 34 36 36 37 39 41 42 42 43 43 43 42 41 41 41 41 41 41 40 40 41 43 45
47 48 50 51 51 49 46 44 44 45 45 45 46 46 47 48 49 50 51 51 50 47 44 39 33 29 28 31 32 31 29 29 30 30 28 27 27 29 31 32 30 28 27 28 29 31 32 29 26 28 30 26 21 19 24 31 34 31 26 22 23 28 33 35 35 37 39 40 41 41 40 40 39 39 40 41 41 41 40 39 37 37 38 40 43
48 49 50 50 49 46 43 41 42 43 43 43 43 44 44 45 46 47 47 47 46 44 42 40 37 33 28 27 28 27 25 24 25 26 26 25 26 28 30 30 29 28 28 28 28 31 31 28 25 25 24 19 13 11 12 17 23 26 25 24 24 28 32 34 35 36 38 38 38 38 37 37 37 38 39 40 40 39 38 37 36 35 36 37 39
48 49 49 49 46 43 40 40 41 41 40 40 41 41 42 43 43 44 44 43 43 42 40 38 38 36 33 30 28 27 24 21 21 21 20 21 22 24 25 26 25 23 22 21 23 26 24 20 17 16 14 10 7 8 9 10 13 16 18 21 25 28 31 33 34 35 35 36 36 35 35 35 37 37 38 38 38 37 36 35 34 33 34 36 37
48 48 48 47 44 40 39 39 39 39 38 38 38 38 39 40 41 41 41 41 40 39 38 37 36 35 35 34 31 29 26 23 22 22 22 21 21 21 23 24 20 14 14 16 17 17 15 12 11 11 9 8 8 8 9 11 14 15 17 21 26 28 28 31 33 33 32 32 32 32 34 36 36 35 34 34 34 34 33 32 32 31 32 33 33
47 46 45 43 40 38 38 38 38 37 37 36 36 36 37 38 38 38 38 38 38 37 36 35 34 34 34 33 33 32 30 27 25 24 25 25 23 21 22 22 15 8 9 12 12 12 12 11 12 12 10 9 10 11 12 13 16 17 19 23 26 27 26 28 29 28 27 28 29 32 34 35 33 30 29 30 31 31 30 29 29 28 28 29 29
47 45 43 40 37 36 36 36 36 36 35 35 35 34 34 35 36 36 36 36 36 35 34 33 32 32 32 32 31 31 30 28 27 25 24 25 24 22 23 22 16 9 6 8 9 11 11 9 10 11 10 10 10 12 13 15 17 19 20 21 21 20 20 22 23 23 24 27 29 32 33 31 28 27 26 27 28 28 27 26 26 25 26 26 27
45 43 40 36 34 34 34 34 34 34 33 33 33 32 32 33 33 34 34 34 34 34 32 31 30 30 30 30 30 30 29 28 27 26 24 24 23 22 21 21 18 13 10 8 8 9 9 7 7 10 12 13 13 14 16 17 18 16 13 11 11 12 15 17 19 20 23 26 27 29 28 27 25 24 24 25 25 25 25 25 25 25 25 25 26
43 41 37 33 33 33 33 32 31 31 31 31 30 30 30 31 31 32 32 32 32 32 32 31 30 29 30 30 30 30 30 29 28 26 25 25 24 22 21 21 19 16 13 12 12 11 11 10 11 13 14 15 17 18 18 16 13 10 7 7 10 12 14 16 17 19 20 22 24 25 25 24 23 23 23 24 23 23 23 24 24 24 24 24 25
41 37 33 31 32 32 31 31 30 29 28 28 28 27 28 28 29 30 31 31 31 31 32 31 31 30 30 30 31 31 31 30 29 28 26 25 24 23 22 21 20 18 15 14 14 15 15 16 16 16 17 18 18 17 14 10 8 8 9 10 12 12 12 12 13 15 17 18 20 21 22 22 22 21 21 21 22 22 22 22 22 23 23 24 25
37 33 30 29 30 30 29 29 28 27 26 25 25 25 26 26 27 28 29 30 31 31 31 31 32 31 31 32 32 32 32 31 31 30 28 26 24 22 21 21 21 19 17 16 15 16 17 19 19 19 19 18 17 14 10 7 7 9 11 12 13 13 12 12 13 14 15 16 18 19 20 20 20 19 19 20 20 20 20 20 20 21 22 23 25
31 29 28 28 28 27 27 26 26 25 24 23 22 23 23 24 25 27 28 29 30 31 31 32 32 32 32 32 33 33 32 32 31 31 30 27 25 23 21 20 20 20 19 18 18 18 19 19 19 19 17 16 13 11 8 8 10 12 13 14 14 14 14 15 16 16 16 17 18 18 18 18 18 18 19 19 19 19 19 19 19 20 21 23 26
27 26 26 26 25 25 25 24 24 23 23 22 21 21 21 22 24 25 26 27 28 29 30 31 32 32 32 32 32 33 33 32 31 31 30 29 27 25 23 21 20 19 19 19 19 19 19 19 19 18 16 14 13 10 9 11 12 14 15 16 16 17 17 16 16 16 17 18 19 19 18 18 17 18 18 19 19 18 17 18 19 20 22 24 26
25 24 24 24 24 23 23 22 22 21 21 20 20 20 21 21 22 23 24 25 26 27 28 29 30 30 31 31 31 32 32 32 31 30 29 29 28 27 25 23 21 19 18 18 18 19 19 19 18 17 16 15 13 11 10 11 13 14 15 16 16 16 14 12 12 14 16 17 18 18 18 18 18 18 18 17 16 15 15 17 19 21 23 24 25
22 22 22 22 22 22 21 20 20 19 19 19 19 20 20 21 21 22 23 24 25 25 26 27 28 28 28 29 30 30 30 30 29 28 27 26 26 26 25 23 22 20 19 19 18 18 18 18 17 16 15 14 13 10 9 10 11 12 11 10 9 8 7 7 9 11 13 15 16 16 17 18 19 18 15 13 13 13 13 15 17 19 20 21 22
20 20 20 21 21 21 20 19 19 18 17 18 18 19 20 20 20 21 22 22 23 24 24 25 26 27 27 27 28 29 29 29 28 27 25 24 23 23 23 22 21 20 20 19 19 18 17 16 15 14 13 12 10 8 6 6 6 6 5 4 4 4 4 5 7 10 12 13 15 16 17 18 17 15 13 11 12 12 13 14 16 17 18 18 19
19 19 19 20 20 19 19 18 17 17 17 17 18 18 19 19 20 20 20 21 22 23 23 23 24 25 26 26 27 27 27 27 27 26 25 23 22 21 20 20 20 20 19 18 17 16 15 14 13 12 11 9 8 6 5 3 1 1 1 1 1 2 2 4 6 9 11 14 16 18 18 17 14 12 11 11 12 13 14 15 16 16 17 17 17
Wind_Direction
300 300 299 299 298 297 296 295 294 293 293 292 291 290 289 288 289 290 292 294 294 293 290 287 285 284 283 282 281 280 279 279 279 280 280 280 281 281 280 279 279 279 279 280 281 281 282 282 282 281 279 278 277 275 272 269 267 265 263 260 259 257 256 256 258 260 260 258 256 254 251 251 251 251 252 252 253 256 258 258 257 254 252 250 247
299 298 297 296 295 294 293 292 291 290 290 290 290 290 289 289 288 288 288 290 291 293 293 292 290 287 285 284 283 282 281 279 278 277 277 277 277 277 277 277 276 276 275 276 276 276 277 278 279 280 279 278 276 275 273 270 268 266 265 264 263 261 259 257 258 259 259 259 257 255 252 251 251 251 251 252 253 254 256 257 257 256 253 251 249
298 297 296 295 293 291 289 288 287 287 287 287 289 290 290 290 290 289 288 288 288 289 289 290 290 289 288 286 285 284 282 281 280 279 277 275 274 273 273 274 274 273 272 272 272 272 272 273 274 275 276 276 276 275 273 271 269 267 265 265 265 264 262 260 259 259 260 259 258 256 253 251 251 251 251 251 251 251 252 253 255 255 253 251 250
296 296 296 295 294 292 291 289 288 287 287 287 288 289 289 290 290 290 290 289 289 289 288 288 287 287 287 286 285 283 282 281 279 279 278 276 275 273 271 270 270 271 270 270 269 269 268 268 269 269 270 272 273 273 272 271 270 268 266 265 264 265 264 263 261 261 260 260 259 258 255 252 251 250 249 249 248 249 249 250 251 253 253 251 250
295 295 295 295 296 296 295 295 295 294 294 293 292 291 291 291 291 291 291 291 291 291 290 290 289 288 287 286 285 283 282 281 279 278 276 275 274 273 272 270 269 268 268 268 268 267 266 266 265 265 265 266 267 268 269 269 269 268 266 264 263 262 262 262 262 262 261 261 260 259 257 254 251 249 248 248 247 247 247 247 248 250 251 250 249
298 298 298 298 299 299 299 299 299 299 299 298 298 297 296 295 294 294 293 293 293 292 292 291 291 290 289 288 287 286 284 282 281 279 278 276 274 273 272 271 270 269 267 266 266 266 265 264 263 262 262 262 263 263 264 265 265 266 266 265 262 260 259 260 260 261 261 261 262 260 259 256 253 250 249 248 247 246 246 246 246 246 248 249 248
300 300 300 300 301 301 301 301 301 301 301 300 299 298 297 297 296 295 295 294 294 293 293 292 292 291 290 290 289 288 287 285 283 282 280 278 276 274 272 271 270 269 268 267 265 264 264 264 262 261 261 260 260 260 261 262 262 263 263 263 262 259 257 256 257 258 259 259 260 261 260 259 256 253 250 248 247 246 244 244 244 244 245 247 249
298 298 299 299 300 300 301 301 301 301 300 300 299 299 298 298 298 298 298 298 297 296 295 294 294 293 293 292 291 290 288 286 285 285 283 281 279 276 274 272 270 269 268 267 266 265 263 262 262 261 261 260 259 259 259 259 260 260 260 261 261 259 258 255 254 255 256 256 257 258 259 259 258 255 252 248 246 245 244 243 243 243 244 246 248
298 298 298 298 298 298 299 299 299 299 298 298 298 298 299 300 300 301 302 301 301 300 299 298 297 296 295 294 293 291 290 288 286 286 286 284 282 280 277 274 271 269 266 265 264 264 263 261 260 260 260 260 259 259 258 258 259 258 258 259 259 258 258 256 253 252 253 253 253 254 256 257 257 256 254 252 250 248 247 246 245 244 244 245 246
297 297 297 297 297 297 296 296 296 296 296 296 297 298 298 299 300 301 301 301 302 302 302 301 300 299 297 295 293 292 290 289 287 286 286 286 285 284 281 279 276 273 269 265 263 261 260 260 259 258 259 259 259 258 258 258 258 257 256 257 257 257 257 256 254 252 251 251 251 251 252 253 255 256 256 256 255 252 249 247 245 244 243 243 244
299 300 299 299 298 297 296 296 297 297 297 297 298 299 299 299 300 300 301 302 302 303 303 302 301 300 299 297 295 293 291 289 287 286 286 285 285 284 282 281 279 276 274 270 266 263 260 258 257 257 257 257 257 257 257 257 257 256 255 255 255 255 255 255 255 254 252 250 249 249 249 250 251 254 255 255 254 252 250 247 244 243 242 241 241
302 303 302 301 300 299 299 299 299 299 299 300 300 301 301 301 302 303 303 303 304 304 305 304 303 302 301 299 297 296 293 291 290 288 286 284 283 282 281 279 278 277 275 273 270 267 264 260 258 256 255 255 256 256 257 256 256 256 255 254 253 254 254 254 254 254 253 252 250 248 249 250 250 251 252 253 253 253 251 248 245 243 243 242 241
304 304 303 302 302 301 301 301 301 301 301 302 302 303 304 304 305 305 305 306 306 307 307 306 305 304 302 301 299 297 295 294 292 290 287 284 282 280 278 277 276 275 274 273 271 269 267 265 262 258 255 254 254 255 256 256 256 255 255 254 253 252 253 253 254 254 253 253 252 250 249 250 250 250 251 252 253 252 251 249 247 244 243 243 242
304 304 303 303 302 302 301 301 302 302 303 303 304 305 306 307 307 307 308 308 308 308 308 307 305 304 303 301 299 298 296 295 293 290 288 285 283 281 278 276 274 272 272 271 271 270 268 267 265 262 258 255 254 254 255 256 256 256 255 253 252 252 251 252 252 253 253 253 252 251 250 250 250 250 251 252 251 251 250 250 248 246 245 244 243
304 303 303 303 302 302 302 302 302 302 303 304 305 307 307 308 309 309 309 309 309 309 308 307 305 304 303 301 300 298 297 295 293 291 288 286 283 281 279 277 275 272 270 269 269 269 268 267 266 264 261 258 256 254 253 254 256 257 256 254 252 251 250 250 250 252 253 253 253 252 251 252 251 251 250 251 251 250 250 249 248 247 246 244 242
303 303 302 302 301 301 302 302 302 302 303 304 306 307 308 309 309 309 309 309 309 309 307 306 305 304 303 302 300 299 297 295 293 290 288 286 283 281 279 277 276 274 272 270 268 267 267 267 266 265 263 261 258 255 254 254 255 256 256 256 254 252 250 249 249 250 251 252 253 252 251 251 252 252 250 250 250 250 250 248 246 244 242 241 240
301 301 301 300 301 301 301 301 301 302 303 305 306 307 308 309 309 310 310 310 309 308 307 306 306 305 304 302 300 298 296 293 292 289 287 285 283 281 279 277 275 274 273 271 269 267 266 265 266 265 264 262 260 257 254 253 253 254 254 254 255 254 252 249 248 248 248 250 251 251 251 250 251 251 251 250 249 249 249 247 244 243 241 240 240
299 299 299 300 300 301 301 301 302 303 304 305 306 308 309 309 310 310 310 310 308 308 307 307 306 306 305 303 301 298 295 292 290 289 287 285 283 281 280 278 276 274 272 270 268 267 265 263 263 263 264 263 262 260 256 254 252 252 252 253 254 254 253 251 250 249 247 247 248 249 250 250 249 250 250 250 249 249 248 247 245 244 243 241 240
298 298 299 299 300 300 301 302 303 304 305 306 307 309 309 310 311 311 310 309 308 309 309 309 308 308 306 304 301 297 294 292 290 288 287 285 284 282 280 279 277 275 273 270 268 266 264 262 261 260 261 262 262 261 259 256 253 251 250 251 252 252 251 251 254 253 250 247 247 247 247 248 249 249 249 250 250 250 249 249 247 246 244 242 240
297 297 298 299 300 301 302 302 304 305 306 307 308 310 310 311 311 310 309 309 310 311 311 311 310 309 306 303 300 297 295 293 291 289 288 286 284 283 282 280 279 277 275 272 270 267 265 263 260 258 258 258 259 259 259 258 256 253 250 249 249 250 250 251 255 257 255 250 247 246 245 245 246 247 247 248 249 250 250 250 249 248 246 244 242
296 296 298 299 300 301 302 303 304 305 307 308 309 310 311 312 311 310 311 312 313 313 313 312 311 309 306 303 301 299 298 296 294 292 290 289 287 286 285 284 283 281 279 276 274 271 268 265 262 260 257 256 255 256 257 257 256 255 253 250 249 249 250 251 254 257 258 255 251 247 245 244 243 244 245 245 246 248 249 250 250 250 249 247 245
296 296 298 299 300 302 303 304 305 306 308 309 310 312 313 312 311 312 313 315 315 314 314 314 313 310 306 305 304 302 300 298 296 294 293 292 291 290 289 288 287 286 283 281 278 275 272 269 266 263 260 257 255 254 253 254 255 255 254 252 250 248 248 249 252 254 257 257 255 250 246 244 243 243 243 244 245 246 248 249 250 250 250 249 247
296 297 298 300 301 302 303 304 306 308 309 311 312 313 313 312 313 314 316 317 316 315 316 316 314 309 306 305 304 302 300 298 296 295 295 294 294 293 293 292 291 290 288 286 283 280 276 272 269 267 263 261 257 255 253 252 252 253 254 253 251 249 247 247 248 251 253 255 256 253 249 245 244 242 242 243 244 246 247 248 249 250 250 250 249
296 297 299 300 301 302 303 305 307 309 311 312 313 314 313 313 314 317 318 318 317 317 318 317 313 308 307 306 304 303 301 299 297 297 297 297 297 296 295 295 294 292 291 290 288 285 281 277 272 269 266 264 261 257 254 251 250 250 251 251 251 249 247 246 246 247 250 252 253 254 252 248 245 244 243 243 244 245 247 248 248 247 248 249 249
297 298 300 301 302 303 304 307 309 310 312 314 314 314 313 314 317 319 320 319 318 319 320 317 311 308 308 307 306 305 303 300 299 298 297 297 296 295 295 296 295 294 293 291 290 287 285 281 276 271 268 265 263 260 256 252 249 247 247 248 249 248 247 246 245 245 246 248 250 252 253 251 248 245 245 245 246 246 247 247 247 246 246 247 248
298 300 301 301 302 304 306 308 310 312 314 315 315 314 314 317 320 321 321 320 320 321 320 315 310 309 309 308 307 305 302 300 298 296 296 294 294 295 296 296 296 296 295 293 291 288 285 282 278 274 269 266 263 261 258 253 249 246 244 245 246 246 246 245 245 245 245 246 248 250 252 253 252 249 247 247 247 247 248 248 247 246 245 245 246
299 300 301 302 304 306 308 310 311 314 315 315 314 314 316 320 322 323 322 321 321 322 319 313 310 310 309 308 307 304 301 300 299 298 297 296 297 299 299 298 298 298 297 296 292 288 283 280 277 273 270 266 263 260 258 254 249 245 243 242 243 244 246 246 246 246 246 246 247 249 251 253 253 250 248 247 247 247 249 250 249 248 246 246 246
300 301 302 304 307 308 310 312 314 315 316 315 314 315 319 322 323 323 322 322 323 323 319 313 311 311 311 311 310 307 305 305 305 304 303 303 304 304 304 303 302 301 301 300 297 291 283 278 275 271 267 264 260 258 255 250 246 245 245 244 243 244 245 246 246 247 246 246 247 248 249 250 250 249 248 248 247 247 248 251 252 250 248 247 246
301 303 305 307 309 311 312 314 316 316 316 315 314 317 321 324 324 323 323 324 324 324 319 314 314 314 315 315 314 312 311 311 310 309 309 309 309 308 307 306 305 304 304 303 301 296 288 279 273 267 262 258 256 254 250 242 235 233 237 241 243 244 244 245 245 245 245 245 246 246 246 247 248 248 248 248 248 247 247 250 254 254 251 249 248
302 304 307 309 311 313 314 316 317 317 315 314 315 318 323 324 324 324 325 325 325 324 318 313 314 315 315 316 315 314 315 315 314 312 311 311 311 309 307 306 305 304 303 301 298 294 290 283 274 265 257 252 250 249 246 240 233 229 228 229 233 238 243 244 244 243 242 243 244 246 246 247 248 248 248 248 248 248 247 248 252 256 255 252 250
304 307 310 311 313 314 316 317 317 316 314 314 316 320 323 324 324 326 326 325 326 325 317 311 311 312 313 314 315 315 315 315 314 313 313 313 313 312 310 309 308 306 304 300 297 294 292 288 281 269 256 248 246 245 243 239 236 234 234 233 233 236 241 243 242 241 240 240 242 244 245 245 246 247 247 247 247 247 246 246 250 255 257 255 252
307 310 312 313 315 316 317 317 316 314 313 315 319 323 324 323 324 326 326 326 328 327 318 310 308 309 310 312 314 315 317 317 316 316 317 317 317 317 315 312 310 309 306 301 298 297 298 298 294 283 266 253 246 243 241 240 238 236 237 240 239 238 239 242 244 243 239 237 238 242 243 243 243 244 245 245 244 244 245 245 247 252 256 256 254
309 312 313 314 315 316 317 316 315 313 314 317 321 324 324 324 324 326 327 327 329 329 321 311 307 308 309 311 313 317 320 321 320 320 321 321 322 321 318 314 313 314 311 306 303 305 308 309 307 301 284 264 252 244 241 240 238 234 233 239 241 238 237 240 242 241 237 234 235 239 241 241 241 243 244 243 242 243 244 244 246 251 256 256 255
311 313 314 315 316 316 315 314 313 313 315 319 322 324 324 325 326 328 328 328 331 332 327 316 307 305 307 309 312 318 323 325 326 327 327 327 326 323 318 315 317 318 314 309 306 304 305 306 308 309 301 281 261 249 242 238 237 236 235 238 241 238 234 233 235 236 234 232 232 235 237 238 240 242 243 243 243 244 245 245 246 250 254 256 255
312 314 314 315 315 314 314 313 312 313 316 320 323 324 325 326 328 329 328 329 332 334 333 327 316 309 307 308 312 319 325 330 331 332 332 331 328 324 320 318 318 316 313 310 308 304 302 303 307 311 309 294 270 252 244 238 235 235 236 239 241 238 232 230 231 231 231 230 231 233 235 237 239 242 243 244 245 246 246 246 247 249 252 253 253
312 313 314 313 313 312 311 310 311 313 317 321 323 324 325 328 329 328 329 331 333 333 333 331 327 321 315 312 314 320 328 332 333 333 334 333 330 327 323 321 318 315 313 314 314 312 310 308 307 312 312 299 276 257 248 241 236 236 238 243 244 241 236 234 231 229 229 231 232 233 234 236 237 240 243 245 246 247 248 248 247 248 250 251 251
312 312 312 311 311 310 309 308 310 314 318 321 322 323 326 329 329 329 330 332 334 335 334 332 330 327 324 318 315 319 326 331 332 332 332 330 328 326 325 323 319 315 315 319 322 322 320 316 312 314 315 305 277 253 248 244 239 239 241 244 245 244 240 237 233 230 229 231 233 233 233 234 237 240 243 244 246 247 248 248 246 245 245 246 246
311 311 310 309 308 307 306 307 311 315 318 320 321 323 327 329 329 330 332 334 337 337 336 335 333 332 331 328 324 324 326 328 329 328 328 327 324 323 326 328 324 319 324 332 333 329 329 333 334 332 331 322 290 258 250 250 246 243 245 249 251 249 242 235 233 232 231 231 232 232 232 235 239 242 243 242 243 245 246 246 244 242 241 241 242
309 309 308 307 306 305 305 308 312 315 317 319 320 324 328 330 330 332 334 337 340 341 340 339 338 336 336 335 333 331 330 331 331 332 334 335 332 329 330 332 331 333 346 349 340 335 342 352 349 340 337 331 313 289 274 271 266 259 255 254 255 253 245 234 230 231 231 230 230 231 234 238 240 240 239 239 240 241 241 241 239 238 237 238 239
306 306 305 304 303 303 305 308 313 315 316 317 320 325 330 331 332 334 337 340 343 345 345 344 342 341 342 343 341 339 339 340 340 340 339 339 339 337 336 334 331 341 3 356 339 331 337 338 331 326 324 322 314 300 287 282 276 271 267 263 261 258 248 234 227 227 229 230 231 234 239 239 236 233 233 234 235 236 236 235 234 233 232 233 234
304 304 302 300 300 301 305 309 313 315 315 317 321 327 331 333 334 337 340 342 345 349 350 350 348 346 347 349 349 347 347 347 348 349 347 345 343 341 340 338 332 327 341 343 328 321 324 331 336 329 312 298 295 291 286 286 284 282 280 276 267 256 241 230 225 227 231 235 237 239 238 234 229 229 231 232 232 232 231 228 226 224 224 226 228
302 301 299 297 297 300 304 309 313 313 314 317 322 328 332 335 337 340 343 345 348 351 354 357 356 354 353 353 354 353 352 351 353 355 356 355 353 348 343 339 333 324 315 307 307 314 316 315 319 315 305 296 294 292 291 291 291 289 286 276 259 241 231 228 229 233 236 239 240 237 232 227 225 227 228 227 226 225 223 220 218 218 219 221 224
298 297 295 294 296 300 304 309 312 312 313 316 322 328 334 337 340 343 346 348 350 353 356 360 2 2 1 1 0 359 357 355 354 355 356 358 359 357 351 345 338 330 316 298 289 294 301 299 298 300 301 301 301 302 301 297 287 274 257 238 230 226 224 225 227 231 235 237 236 231 225 220 220 221 221 221 219 217 215 214 214 214 215 217 218
294 293 291 292 295 300 306 309 310 310 312 317 323 330 335 339 342 345 348 351 353 355 357 0 3 5 5 5 6 6 5 1 358 356 354 354 356 356 354 350 344 338 328 310 293 285 286 290 293 295 296 298 302 308 310 300 269 245 233 223 213 207 207 212 220 227 232 232 229 225 220 217 216 216 216 215 213 210 209 209 210 210 211 213 213
290 288 288 291 296 302 307 309 308 309 312 318 325 331 337 341 344 347 349 352 356 358 360 1 3 4 5 5 6 7 8 7 4 1 358 356 356 355 354 351 348 345 339 328 313 299 293 293 296 299 302 303 304 306 302 279 248 236 227 214 201 194 196 205 214 220 223 223 221 218 216 214 213 213 211 209 206 203 203 203 204 207 209 210 209
284 283 286 291 297 303 306 306 306 307 311 317 325 332 338 342 345 348 350 353 356 360 2 3 3 4 4 4 4 5 6 7 7 6 4 2 0 359 357 355 352 350 346 340 330 321 315 312 311 311 310 308 306 301 284 254 236 229 221 209 199 196 201 208 213 216 217 215 213 212 210 209 209 208 204 200 197 196 198 201 204 205 206 205 204
279 281 286 292 298 303 304 303 304 306 311 317 325 333 338 343 346 348 350 353 356 359 2 3 4 4 3 4 4 4 4 4 5 6 6 6 5 4 2 0 358 355 352 348 341 334 328 324 321 320 318 316 313 302 276 249 234 225 216 209 206 208 213 217 220 221 219 213 209 206 204 201 199 197 194 192 191 193 197 201 202 200 198 197 197
277 282 288 294 300 303 302 301 302 305 310 317 325 332 338 343 346 347 348 351 355 358 2 4 4 4 4 5 5 5 5 4 2 2 4 7 8 7 6 5 4 3 1 359 353 347 341 337 332 328 325 323 319 308 281 257 240 224 213 210 213 218 223 227 229 229 223 215 208 205 201 194 187 183 182 183 184 187 193 196 196 193 192 192 192
278 284 291 296 300 301 299 299 301 304 309 317 325 332 337 342 344 346 347 349 353 357 0 3 4 4 5 7 7 7 7 6 4 2 2 5 8 9 9 8 8 9 9 9 6 1 358 353 348 344 339 334 329 318 293 267 247 230 221 224 233 242 246 247 243 234 224 213 205 199 193 184 175 170 168 172 177 180 182 184 186 186 186 187 188
281 287 293 298 299 299 298 299 301 305 312 320 327 332 336 339 342 344 346 348 350 354 357 0 2 4 6 7 9 9 9 9 8 6 4 4 6 9 9 9 9 10 12 12 11 10 8 5 3 2 359 355 349 339 317 284 258 248 250 266 280 280 269 253 240 228 215 201 188 178 171 167 162 158 159 165 173 175 173 172 173 174 175 177 179
283 289 295 297 297 296 297 299 302 308 317 324 329 331 333 335 338 341 344 347 349 352 355 357 360 2 4 7 8 9 10 10 11 11 9 8 8 8 9 8 8 9 9 9 10 11 10 8 9 10 12 15 18 18 12 2 327 291 292 298 300 296 276 250 232 217 199 181 168 161 157 154 150 148 152 160 165 165 164 163 164 166 168 171 174
Height
3058 3057 3056 3055 3053 3052 3051 3049 3048 3047 3045 3044 3043 3041 3040 3039 3038 3036 3034 3032 3031 3030 3029 3029 3028 3027 3026 3025 3024 3023 3023 3022 3021 3021 3021 3020 3020 3020 3019 3018 3017 3017 3016 3015 3014 3013 3012 3012 3012 3012 3011 3011 3011 3011 3010 3011 3010 3011 3012 3013 3013 3015 3015 3014 3013 3014 3017 3021 3025 3029 3031 3031 3031 3032 3034 3036 3038 3040 3042 3043 3044 3044 3045 3046 3046
3053 3051 3050 3049 3048 3047 3046 3044 3043 3041 3039 3038 3037 3036 3035 3034 3032 3031 3030 3028 3026 3024 3023 3022 3021 3020 3019 3018 3017 3016 3015 3014 3013 3013 3012 3012 3012 3012 3012 3011 3011 3010 3010 3009 3008 3007 3006 3006 3006 3006 3005 3005 3005 3005 3005 3005 3004 3004 3005 3006 3006 3008 3009 3008 3007 3008 3009 3012 3016 3020 3023 3024 3024 3026 3028 3029 3032 3034 3035 3036 3038 3038 3039 3040 3040
3047 3046 3045 3044 3043 3042 3041 3039 3038 3036 3034 3033 3031 3030 3029 3028 3027 3026 3024 3023 3022 3020 3018 3016 3015 3013 3012 3012 3011 3010 3008 3007 3006 3005 3005 3004 3004 3004 3004 3004 3004 3003 3002 3002 3001 3000 2999 2999 2999 2999 2998 2998 2998 2998 2998 2998 2998 2998 2998 2999 2999 3001 3002 3002 3002 3001 3002 3004 3007 3011 3014 3016 3018 3020 3022 3023 3025 3026 3027 3029 3030 3031 3033 3034 3035
3041 3040 3039 3038 3037 3036 3035 3033 3032 3031 3029 3028 3026 3025 3023 3022 3021 3019 3018 3017 3015 3014 3012 3011 3009 3008 3007 3005 3004 3004 3002 3001 3000 2999 2998 2997 2996 2996 2995 2995 2995 2995 2994 2994 2993 2992 2992 2992 2992 2991 2991 2991 2992 2992 2991 2991 2992 2991 2992 2992 2992 2994 2995 2995 2996 2996 2996 2996 2998 3001 3005 3008 3011 3013 3014 3015 3017 3018 3020 3022 3023 3024 3026 3028 3029
3036 3035 3034 3033 3031 3030 3029 3028 3027 3025 3024 3023 3021 3020 3018 3016 3015 3013 3012 3010 3009 3007 3006 3004 3003 3001 3000 2999 2998 2997 2996 2995 2994 2993 2992 2990 2989 2988 2987 2986 2986 2986 2986 2986 2985 2984 2984 2984 2984 2984 2983 2983 2984 2984 2984 2984 2984 2984 2985 2986 2985 2986 2987 2988 2989 2990 2989 2989 2991 2993 2995 2999 3002 3004 3005 3007 3009 3011 3012 3014 3015 3017 3018 3020 3022
3031 3030 3029 3027 3026 3025 3024 3023 3022 3020 3019 3018 3016 3015 3013 3011 3009 3007 3005 3004 3002 3000 2999 2998 2996 2994 2993 2992 2990 2989 2989 2988 2986 2985 2984 2983 2981 2980 2979 2978 2977 2976 2977 2977 2977 2976 2976 2976 2976 2976 2975 2975 2975 2975 2975 2976 2976 2976 2977 2978 2978 2978 2978 2979 2981 2982 2982 2983 2984 2984 2986 2989 2992 2995 2998 3000 3001 3003 3005 3006 3008 3009 3011 3013 3015
3026 3025 3024 3022 3021 3020 3019 3017 3016 3015 3014 3012 3011 3009 3007 3006 3004 3002 3000 2998 2996 2994 2993 2991 2990 2988 2987 2985 2983 2982 2981 2980 2979 2977 2976 2974 2972 2971 2970 2969 2967 2967 2967 2967 2967 2967 2967 2967 2967 2967 2967 2967 2967 2967 2967 2967 2967 2968 2969 2969 2969 2969 2969 2971 2972 2973 2975 2975 2976 2976 2977 2980 2983 2986 2990 2992 2993 2994 2995 2996 2997 3000 3004 3006 3009
3022 3020 3019 3018 3016 3015 3014 3012 3011 3009 3008 3006 3005 3003 3002 3000 2998 2997 2995 2993 2991 2989 2987 2985 2983 2982 2980 2978 2976 2975 2973 2972 2971 2969 2967 2965 2964 2962 2961 2960 2958 2958 2957 2957 2957 2957 2958 2958 2958 2959 2959 2959 2959 2958 2958 2958 2958 2959 2960 2960 2960 2960 2961 2963 2964 2964 2966 2968 2968 2968 2969 2971 2973 2976 2980 2981 2982 2983 2985 2986 2990 2995 2999 3001 3003
3017 3016 3015 3014 3012 3010 3009 3007 3006 3004 3003 3001 2999 2997 2996 2994 2992 2991 2989 2987 2985 2983 2981 2979 2977 2975 2973 2971 2969 2967 2965 2963 2962 2960 2957 2956 2954 2952 2951 2950 2949 2948 2948 2947 2947 2947 2947 2948 2948 2949 2949 2949 2950 2949 2949 2949 2949 2950 2951 2951 2950 2951 2953 2954 2955 2956 2957 2959 2960 2961 2960 2961 2963 2966 2968 2971 2973 2976 2979 2982 2986 2990 2992 2994 2996
3013 3011 3010 3009 3007 3005 3004 3002 3001 2999 2997 2995 2994 2992 2990 2988 2986 2984 2983 2981 2979 2977 2975 2973 2971 2968 2966 2964 2962 2960 2957 2956 2954 2952 2949 2946 2944 2941 2940 2939 2938 2937 2937 2937 2937 2938 2938 2938 2938 2939 2939 2939 2940 2940 2940 2940 2940 2941 2941 2941 2941 2943 2944 2945 2946 2947 2948 2949 2951 2952 2951 2951 2953 2956 2958 2963 2968 2970 2972 2975 2979 2982 2984 2986 2987
3007 3005 3004 3002 3001 2999 2998 2996 2995 2993 2991 2989 2987 2985 2983 2982 2980 2977 2975 2973 2971 2969 2967 2965 2963 2961 2957 2955 2953 2951 2949 2948 2946 2944 2941 2938 2934 2931 2928 2927 2926 2925 2925 2925 2925 2926 2927 2928 2928 2928 2929 2929 2929 2929 2930 2930 2931 2931 2931 2931 2932 2933 2935 2936 2938 2939 2939 2939 2942 2943 2942 2943 2945 2946 2949 2954 2958 2960 2963 2967 2970 2972 2974 2976 2978
3000 2998 2997 2995 2994 2992 2990 2989 2988 2986 2984 2982 2980 2978 2976 2974 2972 2969 2967 2965 2962 2960 2958 2955 2952 2950 2947 2944 2942 2940 2938 2938 2936 2933 2930 2928 2925 2921 2917 2915 2913 2913 2913 2913 2913 2914 2914 2915 2916 2917 2917 2918 2918 2918 2919 2920 2921 2921 2921 2921 2922 2923 2926 2927 2929 2930 2930 2931 2932 2933 2934 2936 2938 2937 2939 2943 2947 2951 2954 2957 2960 2963 2965 2967 2970
2994 2992 2991 2989 2987 2985 2983 2981 2980 2978 2976 2974 2972 2970 2968 2966 2963 2960 2957 2955 2952 2950 2947 2944 2941 2938 2935 2931 2929 2927 2926 2926 2924 2921 2917 2915 2913 2909 2906 2903 2902 2901 2900 2901 2901 2901 2902 2902 2903 2904 2906 2907 2907 2907 2908 2909 2910 2910 2910 2910 2911 2913 2916 2917 2919 2921 2921 2922 2922 2923 2926 2929 2928 2928 2931 2934 2937 2941 2944 2947 2951 2954 2955 2958 2963
2988 2987 2985 2983 2980 2979 2977 2975 2973 2971 2969 2967 2965 2963 2960 2957 2955 2952 2948 2946 2943 2940 2937 2933 2930 2927 2923 2919 2916 2914 2913 2913 2911 2908 2904 2901 2898 2895 2892 2891 2890 2889 2889 2888 2888 2888 2889 2890 2890 2891 2894 2895 2895 2896 2897 2897 2897 2898 2898 2899 2901 2903 2905 2907 2909 2910 2911 2912 2912 2914 2919 2920 2919 2921 2923 2924 2926 2930 2934 2938 2941 2945 2948 2953 2958
2983 2981 2979 2977 2975 2973 2971 2969 2967 2965 2962 2960 2957 2955 2952 2949 2946 2943 2939 2936 2933 2929 2926 2922 2918 2915 2912 2908 2903 2901 2901 2901 2898 2894 2891 2889 2886 2882 2878 2876 2876 2876 2876 2877 2876 2875 2876 2876 2876 2877 2880 2882 2884 2885 2886 2886 2886 2885 2885 2887 2890 2893 2895 2897 2899 2900 2901 2901 2902 2906 2910 2911 2911 2912 2913 2914 2916 2920 2925 2929 2933 2937 2941 2945 2947
2977 2975 2973 2971 2969 2967 2965 2963 2961 2958 2956 2953 2950 2948 2944 2941 2938 2934 2930 2927 2923 2919 2915 2911 2907 2904 2901 2897 2892 2889 2889 2889 2885 2880 2878 2876 2873 2869 2866 2864 2862 2861 2862 2863 2864 2863 2862 2862 2861 2863 2865 2868 2872 2874 2875 2875 2874 2873 2873 2874 2877 2880 2882 2887 2890 2890 2890 2890 2892 2896 2900 2901 2902 2903 2903 2904 2906 2910 2915 2918 2921 2925 2928 2930 2932
2971 2969 2967 2965 2963 2961 2959 2956 2954 2952 2949 2946 2944 2941 2937 2934 2930 2925 2920 2917 2913 2909 2904 2901 2898 2894 2890 2886 2881 2876 2875 2875 2871 2865 2863 2862 2858 2855 2853 2851 2850 2849 2849 2849 2849 2849 2850 2849 2848 2848 2849 2852 2856 2861 2864 2864 2862 2861 2862 2863 2865 2866 2869 2875 2879 2879 2879 2880 2881 2885 2889 2891 2892 2893 2893 2894 2896 2899 2901 2904 2908 2913 2915 2917 2920
2966 2964 2962 2960 2958 2955 2953 2950 2947 2945 2942 2939 2936 2933 2930 2926 2922 2917 2911 2906 2903 2899 2894 2890 2888 2883 2878 2873 2868 2862 2860 2860 2856 2850 2848 2847 2843 2840 2838 2836 2835 2836 2836 2835 2835 2834 2835 2837 2837 2836 2834 2836 2840 2844 2848 2850 2850 2850 2851 2853 2853 2854 2857 2863 2866 2866 2867 2870 2871 2874 2877 2879 2881 2883 2884 2884 2886 2887 2888 2892 2898 2903 2904 2906 2911
2961 2958 2956 2954 2952 2949 2946 2943 2941 2938 2935 2932 2929 2925 2922 2918 2913 2908 2903 2897 2893 2889 2884 2878 2875 2871 2864 2858 2853 2848 2843 2843 2841 2835 2832 2832 2828 2824 2822 2820 2819 2820 2819 2819 2819 2820 2820 2823 2825 2825 2823 2824 2825 2828 2831 2834 2835 2837 2840 2842 2841 2842 2847 2852 2852 2852 2855 2858 2861 2864 2866 2867 2869 2871 2873 2875 2876 2876 2878 2883 2889 2891 2892 2897 2902
2955 2953 2951 2949 2946 2943 2940 2937 2934 2931 2928 2925 2922 2918 2913 2909 2904 2899 2894 2889 2884 2879 2874 2867 2862 2858 2850 2843 2838 2833 2828 2827 2825 2820 2817 2817 2813 2810 2807 2805 2804 2803 2803 2802 2803 2805 2806 2808 2810 2812 2812 2812 2813 2814 2816 2819 2820 2823 2826 2827 2827 2831 2839 2842 2840 2840 2843 2846 2849 2852 2854 2856 2858 2859 2862 2865 2866 2867 2870 2874 2877 2879 2883 2888 2891
2950 2948 2946 2943 2940 2937 2934 2931 2928 2924 2921 2917 2914 2910 2906 2900 2895 2890 2886 2881 2875 2870 2864 2857 2850 2844 2837 2830 2825 2821 2817 2814 2812 2808 2806 2805 2802 2799 2797 2795 2792 2790 2789 2790 2790 2790 2792 2792 2794 2797 2798 2798 2800 2801 2802 2805 2807 2808 2810 2812 2815 2822 2828 2829 2829 2830 2831 2832 2836 2839 2841 2844 2847 2848 2850 2854 2856 2858 2861 2863 2866 2868 2872 2877 2880
2945 2943 2940 2938 2935 2932 2928 2925 2921 2918 2914 2910 2906 2902 2898 2892 2887 2882 2877 2872 2866 2860 2854 2847 2839 2831 2826 2821 2817 2813 2809 2806 2803 2800 2797 2796 2794 2791 2788 2786 2783 2779 2778 2779 2778 2778 2778 2779 2780 2782 2783 2783 2785 2787 2789 2791 2793 2794 2796 2800 2805 2811 2815 2817 2818 2819 2819 2820 2823 2826 2830 2833 2835 2837 2840 2843 2846 2849 2851 2854 2857 2859 2861 2865 2869
2939 2937 2935 2932 2929 2926 2922 2919 2915 2911 2907 2903 2898 2894 2889 2884 2879 2874 2868 2863 2857 2851 2844 2836 2828 2821 2817 2814 2810 2806 2803 2799 2796 2793 2791 2788 2786 2783 2780 2778 2775 2771 2768 2768 2767 2766 2766 2767 2768 2769 2769 2769 2771 2772 2775 2777 2779 2780 2784 2789 2794 2799 2803 2805 2806 2807 2808 2809 2811 2814 2818 2822 2825 2828 2831 2834 2838 2841 2842 2845 2848 2850 2852 2855 2858
2934 2931 2929 2926 2923 2920 2916 2913 2909 2905 2900 2896 2891 2886 2881 2877 2872 2866 2860 2854 2848 2841 2834 2826 2818 2813 2809 2806 2803 2800 2796 2793 2790 2787 2784 2782 2779 2776 2773 2770 2768 2764 2760 2759 2757 2754 2754 2755 2756 2756 2757 2757 2758 2759 2760 2762 2764 2768 2772 2776 2781 2786 2790 2792 2794 2796 2797 2798 2799 2802 2806 2811 2815 2819 2823 2827 2830 2832 2833 2835 2837 2839 2842 2845 2848
2928 2926 2923 2920 2917 2914 2911 2907 2903 2899 2894 2889 2884 2879 2874 2869 2864 2859 2852 2846 2839 2832 2824 2817 2811 2806 2802 2798 2795 2792 2789 2786 2784 2781 2779 2777 2774 2770 2767 2764 2761 2757 2753 2751 2748 2745 2743 2743 2743 2744 2744 2745 2745 2746 2747 2748 2751 2755 2759 2764 2769 2773 2776 2779 2782 2785 2785 2786 2788 2791 2795 2801 2806 2811 2816 2819 2820 2821 2823 2825 2827 2829 2832 2835 2837
2922 2920 2917 2914 2911 2907 2904 2901 2897 2892 2887 2882 2877 2872 2868 2862 2857 2851 2845 2839 2831 2824 2816 2809 2804 2800 2795 2791 2788 2785 2783 2781 2778 2776 2773 2771 2768 2765 2761 2757 2754 2750 2747 2743 2739 2736 2734 2733 2732 2732 2732 2733 2734 2734 2735 2737 2740 2743 2747 2752 2756 2760 2764 2768 2771 2773 2774 2777 2779 2782 2787 2792 2798 2803 2807 2808 2809 2811 2814 2816 2818 2820 2822 2825 2827
2916 2914 2911 2908 2904 2901 2897 2894 2890 2886 2881 2876 2871 2867 2862 2856 2850 2845 2839 2832 2824 2816 2809 2803 2798 2794 2789 2785 2782 2779 2776 2774 2771 2769 2766 2763 2760 2757 2753 2749 2746 2742 2739 2736 2732 2728 2725 2724 2723 2722 2722 2722 2723 2724 2725 2727 2730 2733 2736 2740 2744 2749 2754 2758 2761 2763 2766 2769 2772 2775 2780 2785 2788 2792 2795 2797 2799 2803 2806 2807 2809 2811 2814 2816 2818
2911 2908 2905 2901 2898 2894 2891 2887 2883 2879 2874 2869 2865 2861 2856 2850 2845 2839 2833 2825 2817 2809 2801 2796 2792 2787 2782 2777 2774 2771 2769 2767 2764 2761 2758 2754 2751 2748 2744 2740 2736 2732 2728 2725 2722 2720 2717 2715 2714 2714 2713 2712 2713 2714 2717 2720 2723 2726 2728 2731 2736 2740 2745 2749 2752 2754 2757 2761 2764 2767 2772 2775 2778 2781 2785 2788 2791 2795 2798 2799 2801 2803 2805 2807 2808
2905 2902 2899 2895 2892 2888 2885 2880 2876 2871 2867 2863 2859 2855 2850 2844 2839 2833 2827 2820 2811 2802 2794 2788 2784 2780 2774 2770 2767 2764 2761 2759 2757 2754 2751 2747 2744 2740 2736 2732 2728 2724 2720 2717 2714 2712 2710 2708 2706 2706 2705 2705 2705 2707 2709 2712 2715 2718 2721 2725 2728 2732 2736 2740 2743 2746 2749 2753 2755 2759 2763 2766 2769 2773 2776 2779 2783 2787 2790 2792 2794 2796 2797 2799 2800
2899 2896 2893 2889 2886 2882 2878 2874 2869 2865 2861 2857 2853 2848 2844 2839 2834 2827 2821 2815 2807 2798 2790 2784 2779 2775 2769 2765 2762 2759 2756 2753 2751 2749 2745 2742 2739 2735 2731 2726 2723 2719 2716 2714 2710 2706 2704 2702 2701 2700 2699 2699 2700 2701 2703 2706 2708 2710 2713 2717 2720 2724 2728 2731 2735 2739 2743 2745 2748 2751 2755 2759 2762 2765 2768 2771 2775 2778 2781 2784 2786 2788 2789 2791 2793
2893 2890 2887 2883 2880 2876 2872 2868 2863 2859 2855 2851 2846 2841 2837 2833 2829 2824 2818 2810 2802 2795 2788 2782 2777 2772 2767 2762 2759 2756 2753 2750 2747 2743 2740 2737 2734 2730 2726 2722 2718 2715 2713 2711 2706 2702 2700 2698 2696 2695 2695 2695 2695 2696 2698 2700 2703 2705 2708 2711 2714 2717 2721 2724 2729 2733 2736 2738 2741 2744 2748 2751 2754 2757 2760 2764 2767 2770 2772 2775 2778 2780 2782 2784 2785
2887 2884 2881 2877 2874 2870 2866 2861 2857 2853 2849 2845 2841 2835 2830 2825 2822 2819 2815 2808 2800 2792 2784 2778 2774 2770 2766 2760 2755 2752 2749 2746 2742 2738 2734 2731 2728 2725 2721 2718 2714 2712 2710 2707 2703 2699 2697 2694 2692 2691 2691 2690 2690 2692 2694 2696 2698 2701 2703 2706 2708 2711 2715 2718 2723 2726 2729 2731 2734 2737 2740 2744 2747 2750 2753 2756 2759 2761 2764 2767 2769 2772 2775 2776 2777
2881 2878 2875 2871 2868 2864 2860 2856 2852 2848 2844 2840 2835 2830 2825 2819 2814 2810 2808 2804 2798 2791 2783 2775 2770 2765 2762 2758 2753 2748 2745 2742 2738 2733 2730 2726 2723 2720 2717 2714 2711 2708 2706 2703 2699 2696 2694 2692 2689 2688 2686 2685 2686 2688 2690 2692 2695 2697 2698 2700 2702 2706 2709 2713 2717 2720 2722 2724 2728 2730 2733 2736 2740 2742 2745 2748 2750 2753 2756 2759 2761 2764 2766 2767 2768
2875 2872 2869 2865 2861 2858 2854 2850 2847 2843 2839 2835 2830 2825 2821 2815 2809 2804 2798 2794 2790 2787 2782 2776 2769 2763 2758 2754 2750 2746 2742 2738 2734 2729 2725 2722 2719 2716 2713 2709 2707 2706 2703 2700 2696 2694 2691 2689 2686 2684 2682 2680 2680 2682 2685 2688 2692 2693 2694 2696 2698 2701 2704 2708 2711 2713 2715 2718 2721 2724 2726 2729 2732 2735 2738 2740 2743 2746 2748 2751 2753 2756 2758 2759 2761
2870 2867 2863 2859 2856 2852 2849 2845 2842 2838 2834 2830 2826 2821 2817 2811 2806 2800 2794 2787 2781 2777 2775 2772 2767 2761 2755 2749 2745 2742 2738 2733 2730 2726 2722 2719 2716 2712 2709 2705 2703 2702 2701 2698 2695 2692 2689 2686 2683 2681 2678 2676 2675 2676 2679 2683 2687 2690 2691 2692 2694 2697 2699 2702 2704 2707 2710 2712 2715 2717 2720 2723 2726 2729 2731 2734 2736 2739 2741 2743 2746 2748 2751 2753 2754
2864 2861 2858 2854 2851 2847 2844 2841 2837 2833 2830 2826 2821 2818 2813 2808 2802 2797 2791 2785 2778 2772 2767 2764 2761 2757 2752 2746 2741 2738 2734 2730 2726 2723 2720 2716 2713 2709 2705 2702 2699 2697 2696 2695 2692 2689 2687 2684 2681 2678 2676 2673 2672 2673 2675 2679 2683 2686 2688 2690 2691 2693 2695 2697 2699 2702 2704 2707 2709 2712 2714 2717 2720 2723 2726 2727 2730 2732 2735 2737 2739 2742 2744 2746 2748
2859 2855 2852 2849 2845 2842 2840 2837 2833 2830 2826 2822 2818 2814 2810 2804 2799 2794 2789 2783 2776 2770 2765 2759 2755 2751 2748 2744 2739 2736 2732 2728 2725 2721 2718 2714 2711 2707 2703 2699 2696 2694 2692 2691 2689 2686 2684 2682 2679 2677 2675 2673 2673 2674 2675 2677 2680 2683 2686 2687 2689 2690 2691 2693 2695 2697 2700 2702 2704 2707 2709 2712 2715 2718 2720 2721 2724 2726 2728 2730 2732 2735 2738 2740 2741
2853 2850 2847 2843 2840 2838 2835 2832 2829 2826 2822 2818 2815 2811 2806 2801 2796 2791 2786 2781 2774 2768 2762 2757 2751 2745 2742 2739 2735 2732 2729 2726 2723 2720 2718 2714 2710 2706 2703 2699 2695 2692 2691 2690 2688 2685 2683 2681 2679 2677 2675 2674 2675 2676 2677 2678 2679 2681 2682 2683 2685 2686 2687 2689 2691 2693 2695 2697 2700 2702 2705 2708 2710 2712 2714 2716 2717 2719 2722 2724 2726 2729 2731 2733 2735
2848 2845 2841 2838 2835 2833 2830 2828 2825 2821 2818 2815 2812 2808 2803 2798 2793 2788 2783 2778 2773 2766 2760 2755 2749 2743 2738 2734 2730 2728 2725 2722 2719 2716 2713 2711 2708 2704 2701 2698 2694 2692 2690 2689 2687 2685 2683 2681 2680 2678 2677 2676 2676 2676 2677 2677 2678 2678 2679 2680 2681 2682 2683 2685 2687 2689 2691 2693 2696 2698 2701 2703 2704 2706 2708 2710 2712 2714 2716 2719 2721 2724 2726 2728 2731
2843 2840 2836 2833 2831 2828 2826 2823 2820 2817 2814 2811 2808 2804 2799 2795 2790 2786 2781 2775 2770 2765 2759 2753 2747 2742 2737 2732 2727 2723 2720 2718 2715 2711 2709 2707 2705 2702 2700 2697 2694 2691 2689 2688 2687 2685 2683 2681 2680 2679 2678 2677 2676 2676 2676 2676 2676 2676 2676 2677 2678 2678 2679 2681 2683 2685 2688 2690 2692 2694 2696 2697 2699 2701 2703 2705 2707 2709 2712 2714 2716 2719 2722 2724 2726
2838 2835 2832 2829 2826 2824 2822 2819 2815 2813 2810 2807 2803 2800 2796 2792 2788 2783 2778 2773 2768 2763 2758 2753 2747 2742 2737 2732 2727 2723 2719 2715 2712 2709 2706 2704 2702 2700 2698 2696 2693 2691 2688 2687 2685 2684 2682 2680 2679 2678 2678 2677 2676 2675 2675 2675 2674 2674 2674 2674 2675 2676 2677 2679 2681 2683 2685 2687 2688 2690 2691 2693 2694 2696 2698 2701 2703 2705 2707 2709 2712 2714 2717 2719 2721
2832 2829 2827 2824 2822 2820 2818 2815 2812 2809 2807 2803 2800 2796 2793 2789 2785 2780 2776 2771 2767 2762 2757 2753 2748 2742 2737 2733 2728 2724 2720 2716 2712 2709 2706 2703 2700 2698 2696 2695 2692 2690 2688 2686 2684 2683 2681 2680 2678 2677 2676 2675 2675 2674 2673 2673 2672 2672 2672 2672 2673 2675 2676 2678 2679 2681 2682 2683 2685 2686 2687 2689 2691 2693 2695 2697 2699 2701 2703 2705 2708 2710 2713 2715 2717
2826 2824 2822 2820 2818 2816 2814 2811 2809 2806 2803 2800 2796 2793 2790 2786 2782 2778 2774 2770 2765 2760 2756 2752 2747 2743 2738 2733 2729 2724 2720 2716 2712 2709 2706 2703 2700 2697 2695 2694 2692 2690 2688 2686 2684 2682 2681 2679 2677 2676 2675 2674 2673 2672 2671 2671 2670 2670 2671 2671 2672 2673 2675 2676 2677 2678 2679 2680 2681 2682 2684 2685 2687 2689 2691 2693 2695 2697 2699 2701 2704 2707 2709 2711 2713
2820 2818 2817 2815 2813 2811 2809 2807 2805 2803 2800 2797 2793 2790 2787 2784 2780 2776 2772 2768 2764 2759 2755 2750 2746 2742 2738 2733 2729 2725 2720 2716 2713 2709 2705 2702 2699 2696 2694 2693 2691 2689 2687 2685 2684 2682 2680 2679 2677 2676 2675 2674 2672 2671 2670 2670 2669 2670 2670 2670 2670 2671 2672 2673 2674 2675 2676 2677 2678 2679 2681 2682 2684 2685 2687 2690 2692 2694 2696 2698 2701 2703 2706 2708 2710
2815 2813 2812 2811 2809 2807 2805 2803 2801 2799 2796 2794 2790 2787 2784 2781 2777 2774 2771 2767 2763 2758 2754 2749 2745 2741 2737 2733 2729 2724 2720 2717 2713 2709 2706 2702 2699 2696 2693 2691 2689 2688 2686 2684 2683 2681 2680 2678 2677 2675 2674 2673 2672 2671 2670 2669 2669 2669 2669 2669 2669 2669 2670 2671 2671 2672 2673 2674 2675 2677 2678 2680 2681 2683 2685 2687 2689 2691 2694 2696 2698 2701 2703 2705 2707
2809 2808 2807 2806 2805 2803 2801 2799 2797 2795 2793 2790 2788 2785 2781 2778 2775 2772 2769 2765 2762 2757 2753 2749 2744 2740 2736 2732 2728 2724 2721 2717 2713 2710 2706 2702 2699 2696 2693 2691 2689 2687 2685 2683 2682 2680 2679 2678 2676 2675 2673 2672 2671 2670 2669 2668 2668 2668 2668 2668 2668 2668 2668 2668 2669 2669 2670 2672 2673 2674 2675 2677 2679 2681 2683 2685 2687 2689 2691 2694 2696 2698 2700 2702 2705
2805 2804 2803 2802 2800 2799 2797 2796 2794 2792 2789 2787 2784 2782 2779 2776 2773 2770 2767 2764 2760 2756 2752 2748 2744 2740 2736 2732 2728 2724 2721 2717 2713 2710 2707 2703 2700 2697 2694 2691 2689 2687 2685 2683 2681 2680 2678 2677 2675 2674 2672 2671 2670 2670 2669 2668 2668 2667 2667 2667 2666 2666 2666 2666 2667 2668 2669 2670 2671 2672 2673 2675 2677 2679 2681 2683 2686 2687 2689 2691 2693 2695 2697 2700 2702
2801 2800 2799 2798 2796 2795 2794 2793 2791 2788 2786 2784 2781 2779 2776 2773 2771 2768 2766 2763 2759 2756 2752 2748 2744 2740 2736 2733 2729 2725 2721 2717 2714 2711 2708 2704 2701 2698 2695 2693 2690 2688 2685 2683 2682 2680 2678 2676 2675 2673 2672 2671 2670 2670 2669 2669 2668 2667 2666 2666 2665 2665 2666 2667 2668 2668 2669 2670 2670 2672 2673 2674 2676 2679 2681 2683 2685 2686 2688 2690 2691 2693 2696 2698 2701
2797 2796 2795 2794 2793 2792 2791 2789 2788 2786 2784 2781 2778 2776 2774 2771 2769 2766 2764 2761 2758 2755 2751 2748 2744 2741 2737 2733 2729 2726 2722 2719 2715 2712 2709 2706 2702 2699 2697 2695 2692 2690 2687 2685 2682 2681 2679 2677 2675 2674 2673 2671 2671 2670 2670 2670 2669 2669 2668 2668 2668 2668 2669 2669 2669 2669 2670 2670 2671 2672 2673 2675 2677 2678 2680 2682 2684 2686 2688 2689 2691 2693 2695 2697 2700
2793 2792 2791 2790 2789 2788 2787 2786 2784 2783 2780 2778 2776 2773 2771 2769 2767 2765 2762 2760 2757 2754 2750 2747 2744 2741 2737 2734 2730 2727 2723 2720 2717 2713 2710 2707 2704 2701 2699 2697 2695 2692 2689 2687 2685 2683 2681 2679 2677 2676 2674 2673 2672 2671 2671 2671 2671 2671 2671 2671 2670 2670 2670 2670 2670 2670 2670 2670 2671 2672 2674 2675 2677 2679 2681 2683 2684 2686 2688 2689 2691 2693 2695 2698 2701
2790 2789 2788 2787 2786 2785 2784 2783 2781 2779 2777 2775 2773 2771 2769 2767 2765 2763 2761 2758 2756 2753 2750 2747 2744 2741 2738 2734 2731 2728 2724 2721 2718 2715 2712 2709 2706 2704 2701 2699 2697 2694 2692 2690 2687 2685 2684 2682 2680 2678 2677 2675 2674 2673 2673 2672 2672 2672 2672 2672 2671 2671 2671 2671 2671 2671 2671 2672 2672 2674 2675 2676 2678 2680 2681 2683 2685 2686 2688 2690 2692 2694 2697 2699 2702